Regional Weather Roundup
Issued by NWS

Home | Current Version | Previous Version | Text Only | Print | Product List | Glossary On
Versions: 1 2 3 4 5 6 7 8 9 10 11 12 13 14 15 16 17 18 19 20 21 22 23 24 25 26 27 28 29 30 31 32 33 34 35 36 37 38 39 40 41 42 43 44 45 46 47 48 49 50
000
ASUS44 KBMX 261010
RWRAL

ALABAMA REGIONAL WEATHER ROUNDUP
NATIONAL WEATHER SERVICE BIRMINGHAM AL
500 AM CDT SUN APR 26 2015

NOTE: "FAIR" INDICATES FEW OR NO CLOUDS BELOW 12,000 FEET
WITH NO SIGNIFICANT WEATHER AND/OR OBSTRUCTIONS TO VISIBILITY.

THE REMARK "TC" DENOTES TEMPERATURE IN DEGREES CELSIUS.

ALZ001>011-014-016>018-020-261100-
NORTH ALABAMA

CITY           SKY/WX    TMP DP  RH WIND       PRES   REMARKS
MUSCLE SHOALS  MOCLDY    66  64  93 NW5       29.66R
HUNTSVILLE     PTCLDY    65  63  93 W6        29.65R FOG
DECATUR        PTCLDY    66  65  96 SW5       29.65R
HALEYVILLE       N/A     63  63 100 CALM      29.69R
GADSDEN        PTCLDY   N/A N/A N/A W3        29.64R
$$

ALZ012-013-022-023-030>036-040>044-261100-
WEST CENTRAL ALABAMA

CITY           SKY/WX    TMP DP  RH WIND       PRES   REMARKS
TUSCALOOSA     CLEAR     63  61  93 SW3       29.68S
$$

ALZ015-024>027-033>036-040>044-261100-
CENTRAL ALABAMA

CITY           SKY/WX    TMP DP  RH WIND       PRES   REMARKS
BIRMINGHAM     PTCLDY    65  63  93 W8        29.69R
MONTGOMERY     CLEAR     65  62  90 W5        29.71R
SHELBY CO ARPT CLOUDY    63  62  97 CALM      29.69R FOG
MAXWELL AFB    FOG       59  59 100 CALM      29.70R VSB 1/4
GREENVILLE     FAIR      63  61  93 SW5       29.71S
$$

ALZ019-021-028-029-037-038-045>048-261100-
EAST CENTRAL ALABAMA

CITY           SKY/WX    TMP DP  RH WIND       PRES   REMARKS
ANNISTON       CLEAR     61  60  97 W8        29.67R
ALEXANDER CITY CLOUDY    67  63  86 SW5       29.70S
AUBURN         NOT AVBL
$$

ALZ051>064-261100-
SOUTHWEST ALABAMA

CITY           SKY/WX    TMP DP  RH WIND       PRES   REMARKS
MOBILE         PTCLDY    64  63  96 W3        29.75S
BROOKLEY FIELD CLEAR     65  63  93 CALM      29.75S
EVERGREEN      CLEAR     60  59  96 S3        29.74S
$$

ALZ049-050-065>069-261100-
SOUTHEAST ALABAMA

CITY           SKY/WX    TMP DP  RH WIND       PRES   REMARKS
DOTHAN         CLEAR     65  64  97 SW8       29.76S
OZARK          CLEAR     64  60  89 SW5       29.72F
TROY           CLEAR     63  61  93 CALM      29.72S
EUFAULA        FAIR      65  62  90 CALM      29.69S
$$


USA.gov is the U.S. government's official web portal to all federal, state and local government web resources and services.